Total_Precipitation_Accumulation
0.01 0.09 0.22 0.31 0.57 1.16 1.18 0.83 0.45 0.28 0.27 0.34 0.37 0.36 0.46 0.52 0.58 0.93 0.44 0.16 0.05 0.03 0.06 0.12 0.16 0.15 0.15 0.18 0.20 0.21 0.22 0.20 0.20 0.18 0.22 0.26 0.26 0.23 0.25 0.29 0.29 0.29 0.28 0.29 0.33 0.36 0.31 0.24 0.23
0.02 0.09 0.22 0.32 0.83 1.42 1.14 0.77 0.41 0.30 0.23 0.36 0.46 0.40 0.54 0.48 0.22 0.20 0.23 0.17 0.07 0.04 0.04 0.06 0.11 0.13 0.13 0.15 0.17 0.21 0.22 0.21 0.21 0.21 0.23 0.26 0.27 0.24 0.24 0.25 0.24 0.23 0.23 0.25 0.28 0.29 0.23 0.20 0.20
0.02 0.07 0.19 0.33 0.84 1.02 0.79 0.53 0.29 0.26 0.19 0.25 0.38 0.33 0.44 0.53 0.30 0.23 0.24 0.19 0.12 0.08 0.07 0.09 0.10 0.10 0.13 0.13 0.15 0.21 0.24 0.23 0.24 0.26 0.26 0.27 0.31 0.28 0.25 0.25 0.25 0.23 0.22 0.23 0.24 0.24 0.19 0.17 0.20
0.01 0.05 0.15 0.29 0.55 0.57 0.42 0.36 0.26 0.25 0.23 0.22 0.32 0.43 0.54 0.42 0.35 0.35 0.31 0.29 0.19 0.13 0.09 0.10 0.13 0.15 0.15 0.13 0.14 0.18 0.23 0.23 0.24 0.26 0.30 0.30 0.34 0.36 0.30 0.25 0.25 0.24 0.22 0.21 0.18 0.17 0.19 0.19 0.22
0.01 0.05 0.16 0.25 0.32 0.38 0.36 0.31 0.24 0.26 0.24 0.29 0.39 0.67 0.87 0.60 0.42 0.41 0.41 0.39 0.32 0.20 0.14 0.13 0.17 0.17 0.17 0.16 0.18 0.19 0.20 0.20 0.20 0.21 0.22 0.26 0.30 0.36 0.32 0.28 0.26 0.24 0.22 0.20 0.18 0.18 0.20 0.21 0.22
0.00 0.03 0.12 0.15 0.20 0.26 0.28 0.23 0.24 0.22 0.25 0.38 0.55 0.80 0.86 0.67 0.63 0.66 0.69 0.58 0.58 0.41 0.27 0.24 0.24 0.22 0.20 0.19 0.21 0.21 0.20 0.17 0.17 0.17 0.18 0.24 0.26 0.28 0.31 0.30 0.27 0.24 0.21 0.20 0.19 0.19 0.21 0.24 0.26
0.00 0.02 0.04 0.07 0.12 0.17 0.21 0.18 0.20 0.22 0.31 0.48 0.66 0.96 0.95 0.93 0.91 0.87 1.02 1.10 0.91 0.64 0.47 0.39 0.31 0.26 0.26 0.26 0.25 0.23 0.21 0.21 0.19 0.19 0.22 0.30 0.32 0.32 0.34 0.32 0.29 0.28 0.27 0.23 0.19 0.18 0.22 0.24 0.25
0.00 0.02 0.03 0.04 0.07 0.13 0.13 0.15 0.16 0.21 0.36 0.45 0.61 0.99 1.19 1.01 1.06 1.10 1.27 1.38 1.31 0.90 0.69 0.54 0.51 0.47 0.39 0.32 0.31 0.31 0.28 0.28 0.26 0.25 0.30 0.35 0.36 0.36 0.38 0.35 0.34 0.36 0.37 0.33 0.30 0.25 0.24 0.26 0.27
0.00 0.01 0.02 0.02 0.04 0.09 0.08 0.14 0.18 0.16 0.22 0.39 0.57 0.84 0.92 0.84 0.95 1.07 1.27 1.41 1.59 1.38 0.98 0.78 0.70 0.67 0.63 0.53 0.46 0.48 0.47 0.44 0.40 0.44 0.48 0.54 0.60 0.59 0.67 0.58 0.62 0.57 0.60 0.58 0.56 0.48 0.43 0.39 0.36
0.00 0.01 0.01 0.01 0.02 0.04 0.06 0.11 0.16 0.13 0.33 0.60 0.73 0.82 0.73 0.85 0.94 1.13 1.27 1.32 1.47 1.57 1.14 1.00 0.83 0.73 0.73 0.83 0.96 0.89 0.78 0.76 0.74 0.84 0.91 1.08 1.17 1.12 0.89 0.92 1.07 1.14 1.25 1.18 1.11 1.04 0.81 0.69 0.64
0.00 0.01 0.01 0.01 0.01 0.02 0.06 0.06 0.12 0.15 0.48 0.95 1.11 1.11 1.00 0.96 1.08 1.32 1.53 1.56 1.44 1.50 1.24 1.14 1.12 1.05 0.95 1.07 1.21 1.21 1.13 1.15 1.09 1.10 1.23 1.35 1.26 1.18 1.10 1.15 1.34 1.44 1.58 1.54 1.70 1.74 1.44 1.40 1.42
0.00 0.00 0.01 0.01 0.01 0.03 0.05 0.06 0.11 0.19 0.49 0.79 1.07 1.04 1.16 1.12 1.20 1.43 1.73 1.88 1.87 1.96 1.67 1.50 1.53 1.37 1.27 1.25 1.36 1.37 1.35 1.27 1.21 1.30 1.33 1.50 1.60 1.53 1.51 1.60 1.61 1.68 1.85 2.19 2.04 2.19 2.10 1.97 1.84
0.00 0.00 0.00 0.01 0.01 0.02 0.05 0.11 0.12 0.22 0.36 0.56 0.81 0.82 0.87 1.16 1.53 1.89 2.24 2.22 2.36 2.51 2.41 2.12 1.86 1.66 1.60 1.70 1.66 1.58 1.57 1.53 1.57 1.68 1.68 1.73 1.91 1.91 1.95 1.89 1.89 1.75 1.95 2.28 2.38 2.27 2.49 2.53 2.31
0.00 0.00 0.00 0.01 0.02 0.03 0.06 0.13 0.20 0.32 0.42 0.49 0.75 0.99 1.03 1.37 1.70 2.24 2.88 2.76 2.53 2.70 2.78 2.57 2.33 2.15 2.10 2.21 2.25 2.09 1.91 1.99 2.05 2.02 1.91 1.95 2.16 2.36 2.39 2.24 2.17 2.03 2.04 2.24 2.37 2.40 2.88 2.76 2.60
0.00 0.01 0.02 0.04 0.06 0.09 0.12 0.27 0.41 0.46 0.44 0.52 0.82 1.15 1.36 1.53 1.87 2.21 2.56 2.87 3.00 3.08 2.99 2.92 2.84 2.71 2.73 2.67 2.61 2.42 2.33 2.18 2.15 2.20 2.27 2.23 2.24 2.47 2.52 2.50 2.35 2.27 2.24 2.38 2.41 2.60 2.84 2.57 2.45
0.01 0.02 0.05 0.09 0.09 0.11 0.17 0.50 0.50 0.41 0.43 0.75 0.96 1.32 1.58 1.68 1.96 2.36 2.69 3.18 3.41 3.44 3.40 3.34 3.18 3.16 3.13 3.07 2.94 2.78 2.65 2.36 2.14 2.13 2.28 2.32 2.35 2.48 2.56 2.38 2.26 2.46 2.55 2.62 2.74 2.81 2.85 2.71 2.63
0.03 0.04 0.07 0.10 0.11 0.11 0.18 0.39 0.51 0.45 0.60 0.89 1.16 1.48 1.78 2.04 2.50 2.96 3.19 3.30 3.65 3.92 4.04 3.99 3.90 3.65 3.41 3.34 3.31 3.32 3.23 2.88 2.50 2.38 2.36 2.38 2.27 2.30 2.45 2.31 2.37 2.54 2.63 2.66 2.43 2.79 2.78 2.79 2.72
0.04 0.05 0.10 0.14 0.13 0.14 0.22 0.36 0.47 0.53 0.71 1.08 1.47 1.75 2.01 2.39 2.88 3.22 3.46 3.80 3.95 4.15 4.49 4.36 4.22 4.15 4.07 3.96 3.72 3.69 3.46 3.14 2.93 2.77 2.71 2.53 2.38 2.37 2.52 2.37 2.45 2.56 2.65 2.64 2.66 2.83 2.80 2.65 2.65
0.05 0.07 0.11 0.15 0.14 0.17 0.33 0.51 0.53 0.69 0.95 1.22 1.52 1.78 2.07 2.33 2.76 3.21 3.29 3.50 3.79 4.32 4.62 4.67 4.81 4.70 4.45 4.06 3.63 3.43 3.33 3.26 3.06 2.81 2.57 2.47 2.41 2.46 2.65 2.53 2.66 2.63 2.49 2.46 2.62 2.80 2.63 2.41 2.54
0.06 0.09 0.13 0.15 0.14 0.15 0.30 0.49 0.59 0.92 1.19 1.24 1.36 1.49 1.68 2.12 2.53 2.85 3.00 3.05 3.39 3.95 4.32 4.42 4.20 4.06 3.94 3.69 3.53 3.48 3.63 3.33 3.01 2.80 2.55 2.37 2.33 2.38 2.33 2.42 2.32 2.34 2.44 2.44 2.49 2.67 2.49 2.12 2.26
0.05 0.06 0.11 0.16 0.15 0.20 0.31 0.60 0.79 1.03 1.15 1.19 1.26 1.37 1.51 1.87 2.20 2.50 2.56 2.64 2.85 2.97 3.19 3.35 3.48 3.34 3.20 3.14 3.13 3.20 3.36 3.08 2.76 2.57 2.43 2.21 2.08 2.03 2.06 2.06 2.14 2.38 2.41 2.38 2.43 2.45 2.30 2.00 1.97
0.06 0.07 0.06 0.08 0.15 0.27 0.41 0.92 1.14 1.06 1.11 1.25 1.28 1.30 1.52 1.84 1.82 1.91 2.08 2.23 2.48 2.59 2.72 2.77 2.79 2.87 2.82 2.80 2.71 2.58 2.49 2.35 2.21 2.20 2.15 2.12 2.01 1.90 1.85 1.85 1.91 1.97 1.98 2.05 1.89 2.00 2.13 2.14 1.94
0.05 0.05 0.06 0.09 0.18 0.29 0.40 0.71 1.09 1.40 1.45 1.24 1.18 1.14 1.34 1.50 1.42 1.40 1.56 1.67 1.83 1.96 2.17 2.30 2.38 2.46 2.50 2.48 2.37 2.34 2.17 2.12 2.11 2.06 2.00 1.91 1.84 1.81 1.75 1.67 1.65 1.57 1.58 1.70 1.70 1.81 1.85 1.85 1.82
0.04 0.06 0.12 0.23 0.41 0.64 0.54 0.66 1.05 1.39 1.63 1.32 1.15 1.09 1.19 1.16 1.15 1.26 1.35 1.39 1.50 1.69 1.84 1.98 2.08 2.10 2.17 2.20 2.17 2.12 2.05 2.02 1.97 1.88 1.82 1.78 1.76 1.66 1.56 1.52 1.53 1.46 1.47 1.55 1.58 1.66 1.62 1.66 1.72
0.06 0.13 0.45 0.81 1.10 1.12 0.72 0.75 1.11 1.12 1.13 1.13 1.09 1.12 1.11 1.03 0.97 0.97 1.04 1.15 1.29 1.46 1.54 1.60 1.71 1.77 1.74 1.76 1.77 1.73 1.78 1.81 1.69 1.60 1.57 1.51 1.39 1.30 1.25 1.22 1.32 1.33 1.40 1.42 1.43 1.48 1.53 1.62 1.69
0.10 0.15 0.50 0.76 0.82 0.92 0.80 1.07 1.40 1.10 1.00 0.94 1.00 1.07 1.03 0.89 0.81 0.81 0.91 0.94 1.00 1.12 1.25 1.32 1.43 1.48 1.53 1.55 1.53 1.49 1.47 1.46 1.34 1.40 1.36 1.28 1.10 1.02 1.10 1.23 1.29 1.33 1.37 1.32 1.37 1.33 1.34 1.47 1.57
0.15 0.17 0.23 0.43 0.48 0.69 0.89 1.17 1.33 1.01 0.97 1.05 1.15 1.12 1.04 0.82 0.67 0.64 0.70 0.76 0.74 0.77 0.88 1.00 1.22 1.31 1.34 1.37 1.33 1.25 1.24 1.25 1.19 1.24 1.32 1.24 1.18 1.07 1.10 1.18 1.27 1.32 1.41 1.41 1.39 1.33 1.38 1.54 1.57
0.15 0.15 0.19 0.36 0.52 0.72 0.85 1.20 1.47 1.32 1.25 1.24 1.27 1.08 0.79 0.62 0.51 0.48 0.50 0.51 0.54 0.59 0.69 0.80 0.94 1.03 1.08 1.17 1.17 1.00 1.10 1.18 1.15 1.13 1.13 1.16 1.16 1.12 1.09 1.11 1.16 1.13 1.15 1.23 1.26 1.27 1.35 1.52 1.54
0.19 0.21 0.28 0.39 0.42 0.64 0.98 1.17 1.10 1.09 1.11 1.17 1.13 0.91 0.65 0.53 0.43 0.42 0.44 0.46 0.49 0.52 0.63 0.75 0.89 0.98 1.01 1.07 1.12 1.05 1.04 1.08 1.08 1.05 1.03 1.07 1.07 1.08 1.04 1.03 1.00 0.94 0.91 0.95 1.05 1.13 1.27 1.31 1.31
0.17 0.19 0.28 0.42 0.40 0.45 0.69 0.88 0.61 0.63 0.70 0.78 0.79 0.65 0.53 0.51 0.46 0.50 0.50 0.51 0.51 0.58 0.65 0.72 0.83 0.93 0.97 1.07 1.17 1.20 1.14 1.09 1.07 1.03 0.95 0.92 0.89 0.91 0.92 0.92 0.88 0.83 0.85 0.92 0.97 1.05 1.17 1.23 1.21